Date,TemperatureHighF,TemperatureAvgF,TemperatureLowF,DewpointHighF,DewpointAvgF,DewpointLowF,HumidityHigh,HumidityAvg,HumidityLow,PressureMaxIn,PressureMinIn,WindSpeedMaxMPH,WindSpeedAvgMPH,GustSpeedMaxMPH,PrecipitationSumIn
2013-1-1,54.4,43.4,35.6,38.0,35.1,32.0,89,74,51,30.27,30.20,7,0,11,0.00
2013-1-2,61.0,42.2,31.6,39.0,10.9,-99.9,91,59,33,30.24,30.13,3,0,5,0.00
2013-1-3,59.9,42.4,33.1,41.0,29.3,-99.9,91,74,43,30.26,30.16,1,0,5,0.01
2013-1-4,62.0,45.5,36.0,42.0,10.0,-99.9,91,57,40,30.29,30.18,2,0,5,0.00
2013-1-5,56.6,50.2,41.5,48.0,44.5,38.0,91,81,66,30.26,30.07,7,1,17,0.15
2013-1-6,49.1,46.3,40.6,46.0,-44.3,-99.9,92,34,82,30.20,30.05,4,0,10,0.04
2013-1-7,60.7,46.8,38.0,48.0,-36.6,-99.9,91,33,56,30.26,30.15,5,0,6,0.01
2013-1-8,65.3,49.5,40.9,50.0,-21.7,-99.9,90,39,48,30.23,30.12,3,0,8,0.01
2013-1-9,55.6,47.0,40.9,48.0,-9.4,-99.9,91,52,73,30.14,30.00,6,0,12,0.00
2013-1-10,52.8,44.4,37.5,39.0,35.6,32.0,88,73,49,30.20,30.07,6,1,16,0.02
2013-1-11,53.5,43.4,33.4,40.0,35.0,31.0,91,74,48,30.27,30.14,5,0,15,0.00
2013-1-12,52.6,41.2,33.5,37.0,25.1,-99.9,91,65,27,30.25,30.14,4,0,6,0.00
2013-1-13,51.0,38.0,29.3,29.0,24.4,15.0,87,63,25,30.27,30.17,5,0,9,0.00
2013-1-14,52.3,39.1,30.0,26.0,20.1,12.0,72,50,24,30.40,30.23,6,0,11,0.00
2013-1-15,56.6,40.4,30.4,30.0,26.3,22.0,81,61,28,30.48,30.40,3,0,9,0.00
2013-1-16,59.5,42.0,31.2,35.0,30.7,28.0,88,68,31,30.43,30.26,3,0,6,0.00
2013-1-17,66.6,46.2,32.8,39.0,33.8,30.0,91,67,28,30.26,30.14,2,0,6,0.00
2013-1-18,66.6,46.7,34.6,41.0,36.0,32.0,90,70,33,30.22,30.13,3,0,5,0.00
2013-1-19,66.3,47.0,35.2,42.0,36.0,32.0,89,70,33,30.24,30.15,3,0,6,0.00
2013-1-20,66.9,47.1,35.0,39.0,34.6,31.0,88,66,27,30.23,30.12,3,0,5,0.00
2013-1-21,68.8,46.7,33.1,41.0,34.2,30.0,89,67,27,30.18,30.08,3,0,5,0.00
2013-1-22,66.1,48.3,34.1,45.0,35.6,30.0,86,65,35,30.10,30.00,1,0,4,0.00
2013-1-23,62.1,53.0,47.1,49.0,42.0,22.0,92,68,22,30.07,29.95,3,0,9,0.08
2013-1-24,54.4,52.8,50.8,-99.9,-99.9,-99.9,0,0,100,30.18,30.05,0,0,2,0.36
2013-1-25,64.7,57.0,53.1,58.0,-28.2,-99.9,91,39,75,30.18,30.04,3,0,5,0.00
2013-1-26,60.1,51.7,41.3,54.0,-0.3,-99.9,92,52,45,30.09,29.99,7,1,15,0.00
2013-1-27,56.7,45.7,38.5,42.0,35.6,26.0,90,71,31,30.18,30.08,5,0,9,0.00
2013-1-28,58.7,45.7,37.9,43.0,38.0,35.0,89,77,43,30.30,30.17,8,0,11,0.00
2013-1-29,58.0,46.2,37.6,44.0,17.6,-99.9,92,64,50,30.36,30.27,6,0,8,0.00
2013-1-30,69.4,53.0,42.3,44.0,40.0,38.0,89,66,33,30.34,30.25,4,0,9,0.00
2013-1-31,68.6,50.2,38.3,45.0,40.5,36.0,92,73,36,30.28,30.17,2,0,5,0.00
2013-2-1,70.9,52.1,39.3,47.0,35.4,-99.9,92,69,41,30.21,30.11,5,0,9,0.00
2013-2-2,60.5,50.6,44.2,50.0,38.2,-99.9,92,79,68,30.28,30.21,2,0,5,0.00
2013-2-3,60.4,50.3,41.9,48.0,43.0,39.0,90,77,54,30.26,30.13,5,1,8,0.00
2013-2-4,61.5,47.7,38.2,49.0,-1.0,-99.9,92,56,63,30.19,30.07,3,0,5,0.00
2013-2-5,57.2,50.0,42.2,46.0,43.7,40.0,90,80,61,30.16,30.08,7,1,11,0.00
2013-2-6,61.5,47.3,36.9,45.0,13.3,-99.9,92,59,43,30.19,30.12,4,0,8,0.00
2013-2-7,55.7,45.5,37.0,46.0,38.8,34.0,92,79,45,30.19,30.01,7,1,11,0.05
2013-2-8,54.7,44.3,37.0,42.0,38.1,34.0,92,80,50,30.01,29.95,9,1,11,0.02
2013-2-9,59.6,44.3,32.8,37.0,30.2,23.0,90,64,25,30.11,30.00,7,0,9,0.00
2013-2-10,61.6,45.6,32.8,37.0,32.3,29.0,88,64,33,30.12,30.02,6,0,10,0.00
2013-2-11,64.5,47.7,35.5,39.0,31.0,22.0,89,59,22,30.23,30.07,8,1,11,0.00
2013-2-12,64.2,47.6,35.6,39.0,35.0,31.0,88,65,31,30.35,30.24,7,0,7,0.00
2013-2-13,67.1,49.6,36.9,43.0,37.7,34.0,92,68,31,30.34,30.21,6,0,9,0.00
2013-2-14,70.8,52.9,38.2,47.0,39.1,36.0,92,64,29,30.24,30.15,6,1,11,0.00
2013-2-15,75.1,55.7,41.1,45.0,40.4,37.0,87,62,28,30.26,30.19,3,0,6,0.00
2013-2-16,71.1,54.3,42.1,47.0,42.5,39.0,89,68,36,30.22,30.05,3,0,8,0.00
2013-2-17,66.4,50.3,41.6,49.0,18.0,-99.9,92,61,40,30.07,29.96,5,0,7,0.00
2013-2-18,52.3,47.0,39.9,44.0,40.5,36.0,91,79,59,30.05,29.98,5,0,9,0.00
2013-2-19,51.0,44.2,38.8,43.0,38.6,34.0,87,80,69,29.99,29.77,7,1,18,0.25
2013-2-20,60.1,45.5,34.1,39.0,34.4,27.0,91,69,31,30.08,29.84,6,1,13,0.00
2013-2-21,61.0,46.3,35.0,44.0,34.1,29.0,93,67,31,30.18,30.07,5,1,12,0.00
2013-2-22,65.0,48.7,35.0,42.0,35.6,31.0,88,65,29,30.26,30.17,5,0,9,0.00
2013-2-23,59.6,50.4,43.9,45.0,37.9,31.0,88,65,36,30.26,30.15,10,1,13,0.00
2013-2-24,63.1,49.4,37.2,36.0,28.2,21.0,75,49,21,30.26,30.16,8,1,14,0.00
2013-2-25,63.4,48.9,35.5,42.0,36.1,29.0,87,64,38,30.28,30.17,5,1,11,0.00
2013-2-26,68.4,50.9,37.2,41.0,30.7,20.0,91,55,17,30.21,30.13,6,1,13,0.00
2013-2-27,71.3,52.4,36.3,39.0,34.0,29.0,85,56,22,30.38,30.21,5,0,9,0.00
2013-2-28,69.1,53.8,41.6,51.0,44.8,38.0,91,74,46,30.45,30.37,7,1,11,0.00
2013-3-1,74.6,56.6,42.9,52.0,46.4,41.0,93,72,38,30.43,30.23,5,0,8,0.00
2013-3-2,75.1,59.6,48.2,50.0,44.9,36.0,89,63,26,30.24,30.05,6,1,13,0.00
2013-3-3,63.7,56.2,50.2,51.0,46.9,43.0,86,72,51,30.10,30.02,4,1,9,0.00
2013-3-4,63.4,51.5,43.2,46.0,43.1,39.0,87,74,53,30.14,30.04,6,1,12,0.00
2013-3-5,54.8,49.1,42.8,43.0,40.2,38.0,88,72,54,30.07,29.88,12,2,24,0.00
2013-3-6,56.9,50.1,41.1,46.0,40.5,35.0,86,71,46,30.08,29.88,11,2,23,0.00
2013-3-7,58.4,47.5,38.0,44.0,38.0,32.0,90,73,38,30.00,29.85,9,1,12,0.00
2013-3-8,60.2,49.9,41.6,46.0,13.7,-99.9,92,56,40,30.09,29.83,11,1,15,0.00
2013-3-9,67.3,51.2,39.6,43.0,38.4,31.0,89,66,27,30.31,30.09,5,1,11,0.00
2013-3-10,72.3,54.1,38.8,45.0,35.6,27.0,90,58,19,30.34,30.24,5,0,10,0.00
2013-3-11,75.4,55.5,39.3,44.0,38.1,34.0,86,57,23,30.26,30.11,5,0,10,0.00
2013-3-12,76.0,56.2,44.6,50.0,35.6,-99.9,92,64,35,30.16,30.05,4,0,7,0.00
2013-3-13,79.9,61.3,45.7,54.0,39.4,-99.9,92,63,35,30.16,30.05,5,0,8,0.00
2013-3-14,74.4,58.4,47.4,53.0,46.8,32.0,91,69,26,30.16,30.07,4,0,8,0.00
2013-3-15,73.2,56.8,43.8,48.0,44.7,40.0,89,67,34,30.13,30.05,6,0,9,0.00
2013-3-16,73.5,57.0,47.4,50.0,46.3,41.0,92,71,31,30.11,30.03,5,0,10,0.00
2013-3-17,71.5,55.1,41.9,46.0,40.3,32.0,91,63,25,30.15,30.04,7,1,10,0.00
2013-3-18,67.9,54.9,40.9,48.0,41.9,38.0,89,65,37,30.13,30.03,3,0,6,0.00
2013-3-19,74.6,57.9,44.3,51.0,42.7,36.0,90,61,29,30.14,30.05,7,1,9,0.00
2013-3-20,67.1,58.5,53.6,54.0,50.4,38.0,92,77,39,30.13,30.05,13,1,13,0.00
2013-3-21,65.5,54.6,43.3,49.0,41.4,38.0,82,64,36,30.13,30.00,7,1,12,0.00
2013-3-22,69.3,54.7,42.6,40.0,30.7,17.0,87,50,14,30.11,30.01,6,1,12,0.00
2013-3-23,69.9,54.6,41.5,39.0,29.9,16.0,76,46,14,30.14,30.03,5,0,11,0.00
2013-3-24,72.1,55.1,40.5,46.0,40.9,36.0,87,62,33,30.09,29.96,6,0,10,0.00
2013-3-25,62.7,51.7,43.2,46.0,43.0,40.0,89,73,53,30.02,29.95,7,1,11,0.00
2013-3-26,69.3,55.0,45.4,47.0,43.0,41.0,84,66,42,30.01,29.92,5,1,11,0.00
2013-3-27,66.8,56.6,45.7,51.0,47.1,42.0,87,72,53,30.01,29.95,8,1,18,0.00
2013-3-28,74.7,61.5,55.0,53.0,50.5,49.0,86,69,42,30.07,29.99,9,1,11,0.00
2013-3-29,76.8,63.3,53.3,53.0,50.3,47.0,85,66,37,30.07,29.98,9,1,20,0.00
2013-3-30,69.8,59.4,53.8,52.0,49.0,44.0,86,70,40,30.06,29.97,12,3,22,0.00
2013-3-31,66.6,58.4,52.5,54.0,49.6,46.0,92,74,50,30.06,29.99,15,2,18,0.00
2013-4-1,68.4,58.6,52.3,53.0,49.5,45.0,91,74,44,30.15,30.04,9,2,14,0.16
2013-4-2,70.9,59.0,47.7,51.0,47.9,44.0,88,69,42,30.18,30.07,6,0,12,0.00
2013-4-3,80.1,60.3,47.0,52.0,47.7,44.0,91,68,31,30.14,29.95,10,1,12,0.00
2013-4-4,63.4,58.3,51.6,55.0,50.8,47.0,90,76,63,30.11,30.00,13,2,18,0.07
2013-4-5,65.6,58.2,49.8,50.0,48.5,45.0,84,71,55,30.18,30.11,4,0,9,0.00
2013-4-6,68.9,57.9,48.6,52.0,48.8,45.0,88,73,54,30.19,30.13,5,1,9,0.00
2013-4-7,69.3,58.3,49.5,53.0,47.3,42.0,87,68,41,30.16,29.88,6,1,10,0.00
2013-4-8,66.6,55.0,47.6,48.0,35.4,26.0,85,51,25,30.02,29.84,10,3,21,0.02
2013-4-9,74.6,60.4,46.0,40.0,34.5,27.0,77,43,18,30.08,30.01,8,1,16,0.00
2013-4-10,85.5,67.1,50.5,49.0,43.3,39.0,77,46,22,30.17,30.03,9,1,14,0.00
2013-4-11,71.5,58.9,49.6,49.0,44.5,35.0,87,63,28,30.07,29.85,5,1,10,0.00
2013-4-12,77.6,57.7,42.6,48.0,43.3,38.0,90,64,27,29.92,29.82,6,1,10,0.00
2013-4-13,70.8,55.1,44.9,48.0,42.6,38.0,88,66,39,29.92,29.84,6,1,11,0.00
2013-4-14,69.3,55.2,41.1,44.0,38.6,28.0,88,59,27,29.94,29.86,8,1,16,0.00
2013-4-15,58.1,51.2,42.9,45.0,36.5,30.0,85,59,37,29.97,29.86,14,2,22,0.00
2013-4-16,67.1,52.0,37.5,37.0,30.7,22.0,83,50,18,30.14,29.97,10,1,14,0.00
2013-4-17,69.1,56.1,42.1,35.0,28.8,22.0,70,40,17,30.26,30.14,9,1,15,0.00
2013-4-18,76.5,59.2,41.1,42.0,33.4,25.0,75,44,17,30.26,30.17,7,1,11,0.00
2013-4-19,84.0,63.5,44.2,48.0,41.1,36.0,78,49,20,30.23,30.07,5,0,11,0.00
2013-4-20,81.6,63.3,47.4,49.0,42.3,31.0,87,53,16,30.10,29.97,7,1,10,0.00
2013-4-21,86.7,66.4,47.0,50.0,40.1,29.0,84,47,13,30.03,29.91,6,1,10,0.00
2013-4-22,88.4,69.8,51.6,49.0,40.2,27.0,69,41,11,29.96,29.82,6,1,10,0.00
2013-4-23,83.2,64.7,51.1,48.0,36.9,20.0,77,44,12,29.93,29.84,6,1,11,0.00
2013-4-24,66.3,56.2,44.6,49.0,45.7,41.0,88,69,50,29.95,29.83,14,3,21,0.00
2013-4-25,71.6,60.2,50.4,50.0,47.5,44.0,82,64,44,30.13,29.95,7,2,12,0.00
2013-4-26,72.5,59.7,53.1,50.0,47.7,46.0,80,66,45,30.22,30.12,6,1,9,0.00
2013-4-27,79.4,61.7,50.7,52.0,48.1,45.0,82,64,37,30.22,30.08,5,0,9,0.00
2013-4-28,86.1,64.7,49.1,51.0,48.2,45.0,89,61,24,30.08,29.87,5,0,7,0.00
2013-4-29,89.9,71.5,53.8,55.0,46.5,38.0,82,48,16,29.89,29.75,7,1,9,0.00
2013-4-30,83.0,65.9,50.5,50.0,43.9,35.0,87,51,19,29.84,29.77,9,1,12,0.00
2013-5-1,85.3,68.8,52.5,41.0,30.0,19.0,54,28,10,30.08,29.84,6,1,12,0.00
2013-5-2,92.5,71.6,50.8,44.0,37.0,28.0,66,35,11,30.14,30.05,6,0,10,0.00
2013-5-3,89.9,71.4,51.9,42.0,34.3,23.0,61,32,9,30.09,29.79,7,1,11,0.00
2013-5-4,87.2,66.1,53.2,47.0,41.1,31.0,72,45,15,29.79,29.55,14,3,30,0.00
2013-5-5,65.8,58.6,53.6,49.0,45.8,43.0,73,63,44,29.80,29.60,16,3,23,0.00
2013-5-6,67.8,59.5,50.1,50.0,46.9,45.0,83,64,46,29.96,29.81,10,2,19,0.00
2013-5-7,72.8,62.9,54.1,51.0,47.2,43.0,76,58,39,30.05,29.95,6,1,14,0.00
2013-5-8,68.3,58.7,52.2,51.0,48.1,45.0,78,69,54,30.15,30.03,6,1,11,0.00
2013-5-9,69.3,59.0,53.1,50.0,47.9,46.0,78,68,48,30.18,30.09,6,1,12,0.00
2013-5-10,73.9,60.9,53.2,54.0,49.9,47.0,84,69,48,30.18,30.11,6,1,8,0.00
2013-5-11,88.8,67.3,52.0,55.0,51.2,49.0,89,61,27,30.16,30.02,5,0,9,0.00
2013-5-12,82.4,66.6,51.7,58.0,51.0,47.0,87,60,38,30.14,30.03,8,1,9,0.00
2013-5-13,79.9,64.4,51.9,56.0,50.9,46.0,85,64,39,30.09,29.96,6,1,9,0.00
2013-5-14,79.9,63.0,50.1,53.0,48.1,43.0,88,62,36,30.03,29.93,7,1,15,0.00
2013-5-15,74.6,59.7,46.1,47.0,43.8,38.0,86,59,27,30.07,30.02,7,1,12,0.00
2013-5-16,70.3,59.1,50.8,52.0,47.3,42.0,81,66,47,30.05,29.97,9,1,13,0.00
2013-5-17,71.3,58.2,46.8,47.0,42.9,39.0,86,59,34,30.10,30.00,8,1,13,0.00
2013-5-18,74.6,59.5,43.9,50.0,43.6,38.0,83,59,27,30.14,30.08,7,1,11,0.00
2013-5-19,83.8,65.2,47.3,48.0,43.1,36.0,85,51,18,30.12,29.96,6,1,12,0.00
2013-5-20,90.5,69.6,49.8,50.0,39.8,24.0,81,43,10,29.99,29.91,9,1,13,0.00
2013-5-21,72.5,60.0,49.4,48.0,42.1,30.0,83,55,23,29.99,29.91,8,1,14,0.00
2013-5-22,67.8,55.1,45.1,37.0,30.2,17.0,68,43,15,30.02,29.92,9,1,13,0.00
2013-5-23,68.9,55.0,41.5,43.0,37.9,33.0,82,56,27,30.01,29.95,6,1,12,0.00
2013-5-24,73.3,57.0,41.8,45.0,40.0,35.0,83,56,30,30.01,29.95,8,1,11,0.00
2013-5-25,70.6,56.9,44.3,44.0,40.8,37.0,80,57,32,30.07,29.99,7,1,12,0.00
2013-5-26,73.3,61.1,50.1,50.0,47.4,43.0,80,63,34,30.14,30.06,6,1,13,0.00
2013-5-27,64.3,58.3,49.2,53.0,49.4,45.0,87,73,61,30.14,30.01,7,0,8,0.00
2013-5-28,71.1,62.6,54.8,54.0,51.5,46.0,84,68,49,30.00,29.91,7,1,12,0.00
2013-5-29,71.5,61.5,52.0,53.0,47.6,43.0,81,62,37,29.98,29.90,9,1,14,0.00
2013-5-30,77.4,60.8,45.4,47.0,43.0,38.0,86,56,26,29.99,29.93,5,1,10,0.00
2013-5-31,87.6,67.2,47.1,49.0,43.6,33.0,85,49,15,30.02,29.90,9,1,12,0.00
2013-6-1,92.7,68.1,51.9,51.0,47.3,38.0,82,53,16,29.93,29.77,8,0,9,0.00
2013-6-2,82.2,63.7,52.8,54.0,50.4,47.0,85,64,35,29.78,29.67,4,1,9,0.00
2013-6-3,73.7,60.5,49.2,52.0,48.4,45.0,87,66,46,29.85,29.71,9,2,25,0.00
2013-6-4,76.7,63.3,51.1,54.0,50.5,47.0,86,65,43,29.96,29.84,9,2,15,0.00
2013-6-5,75.8,62.8,53.6,54.0,50.9,48.0,83,67,46,29.99,29.90,5,1,11,0.00
2013-6-6,81.6,65.0,53.3,55.0,51.5,47.0,81,64,39,29.95,29.83,6,1,8,0.00
2013-6-7,92.9,70.2,54.5,58.0,53.8,49.0,84,60,28,29.89,29.72,6,0,9,0.00
2013-6-8,94.9,71.9,58.1,60.0,53.9,51.0,80,56,28,29.79,29.68,14,3,27,0.00
2013-6-9,68.9,62.1,57.3,54.0,51.7,49.0,79,69,58,29.87,29.78,17,6,30,0.00
2013-6-10,70.1,61.8,56.9,51.0,49.3,47.0,74,64,50,29.94,29.84,17,4,22,0.00
2013-6-11,75.6,64.5,55.1,55.0,52.3,49.0,80,66,47,29.96,29.89,6,1,11,0.00
2013-6-12,78.8,64.3,49.4,52.0,46.5,39.0,87,57,29,30.02,29.90,7,1,12,0.00
2013-6-13,80.3,63.8,46.4,49.0,42.4,35.0,83,51,20,30.08,29.99,5,1,12,0.00
2013-6-14,87.0,67.5,51.1,51.0,44.3,33.0,86,52,15,29.99,29.81,8,1,11,0.00
2013-6-15,77.6,62.1,49.6,53.0,49.3,45.0,86,65,40,30.01,29.83,6,1,11,0.00
2013-6-16,78.8,64.3,48.2,51.0,48.4,45.0,90,60,35,30.10,30.00,6,1,10,0.00
2013-6-17,76.8,63.6,50.7,54.0,49.8,46.0,87,63,39,30.10,30.03,12,1,12,0.00
2013-6-18,71.1,61.8,53.3,52.0,46.3,39.0,81,60,32,30.05,30.00,12,1,16,0.00
2013-6-19,73.7,62.1,49.8,47.0,44.0,40.0,79,54,35,30.06,29.99,9,1,15,0.00
2013-6-20,79.8,63.6,47.6,46.0,42.4,31.0,83,51,17,30.02,29.94,7,1,14,0.00
2013-6-21,83.6,64.4,48.3,50.0,46.1,41.0,84,56,24,29.97,29.91,9,1,9,0.00
2013-6-22,86.7,67.8,50.4,52.0,47.7,44.0,86,54,23,29.93,29.85,7,1,11,0.00
2013-6-23,73.2,63.9,54.4,59.0,54.4,50.0,86,72,56,29.89,29.81,5,0,8,0.00
2013-6-24,67.9,64.3,61.6,59.0,56.7,55.0,88,77,67,29.91,29.78,8,2,12,0.00
2013-6-25,75.3,67.5,62.0,61.0,57.8,53.0,79,71,59,29.98,29.89,12,2,18,0.00
2013-6-26,84.5,72.2,63.2,63.0,59.7,57.0,84,66,46,30.04,29.96,8,1,10,0.00
2013-6-27,85.7,70.1,58.9,60.0,57.3,52.0,89,67,33,30.06,30.00,5,0,8,0.00
2013-6-28,97.1,77.0,59.6,60.0,56.3,54.0,81,54,24,30.02,29.89,6,1,9,0.00
2013-6-29,99.7,79.0,61.8,57.0,52.8,45.0,68,45,19,29.92,29.79,5,0,10,0.00
2013-6-30,91.0,73.5,60.2,59.0,55.8,53.0,79,57,30,29.84,29.75,8,0,8,0.00
2013-7-1,95.4,77.0,59.3,58.0,55.4,52.0,82,52,26,29.83,29.79,6,0,8,0.00
2013-7-2,94.0,78.8,66.0,60.0,56.0,49.0,79,50,24,29.90,29.80,12,2,26,0.00
2013-7-3,95.4,74.0,62.1,59.0,57.7,55.0,85,61,26,29.90,29.75,3,0,8,0.00
2013-7-4,95.9,78.5,67.1,61.0,58.7,55.0,75,53,27,29.76,29.67,4,0,8,0.00
2013-7-5,79.8,68.4,57.0,56.0,53.1,51.0,82,60,41,29.78,29.70,6,1,10,0.00
2013-7-6,81.1,62.9,52.0,53.0,49.6,48.0,86,65,33,29.79,29.71,9,1,15,0.00
2013-7-7,85.1,66.1,49.2,56.0,50.9,45.0,88,62,31,29.85,29.76,6,1,9,0.00
2013-7-8,88.4,65.8,51.1,57.0,51.3,46.0,84,63,27,29.97,29.85,7,1,9,0.00
2013-7-9,91.8,72.4,54.4,56.0,52.6,46.0,84,55,21,30.01,29.90,5,0,8,0.00
2013-7-10,84.7,68.9,56.9,58.0,54.8,52.0,85,63,39,29.97,29.87,5,1,10,0.00
2013-7-11,81.6,65.9,56.3,56.0,52.9,49.0,82,65,39,29.94,29.87,6,1,9,0.00
2013-7-12,82.6,64.7,51.9,56.0,51.6,48.0,88,65,33,29.92,29.86,5,0,9,0.00
2013-7-13,87.2,68.9,51.0,54.0,50.7,46.0,88,57,26,29.95,29.88,5,1,8,0.00
2013-7-14,81.1,66.1,53.1,57.0,52.9,49.0,87,65,41,29.99,29.89,5,1,9,0.00
2013-7-15,76.5,63.4,54.2,55.0,51.8,48.0,83,68,45,29.92,29.81,5,1,10,0.00
2013-7-16,74.2,63.3,55.3,54.0,51.2,48.0,81,66,45,30.03,29.87,8,2,15,0.00
2013-7-17,78.1,65.8,58.9,56.0,53.0,51.0,81,65,46,30.09,30.02,6,1,8,0.00
2013-7-18,85.5,68.3,56.2,56.0,52.6,47.0,83,61,28,30.07,29.93,5,1,11,0.00
2013-7-19,86.7,68.6,56.0,57.0,53.9,52.0,87,63,35,29.95,29.81,6,1,9,0.00
2013-7-20,89.3,67.5,56.7,57.0,54.0,51.0,85,65,34,29.85,29.71,4,0,8,0.00
2013-7-21,86.7,69.3,53.3,56.0,51.5,46.0,85,57,24,29.86,29.75,11,2,22,0.00
2013-7-22,80.9,69.0,57.8,59.0,53.0,40.0,85,60,26,29.94,29.86,12,1,18,0.00
2013-7-23,83.8,70.9,62.7,59.0,57.3,55.0,82,64,42,29.98,29.93,8,1,10,0.00
2013-7-24,88.6,72.2,57.8,58.0,53.7,47.0,87,57,27,29.97,29.89,6,1,9,0.00
2013-7-25,85.5,70.4,56.3,59.0,54.7,52.0,86,61,37,30.02,29.92,8,1,9,0.00
2013-7-26,85.5,69.2,57.5,58.0,55.7,53.0,86,65,39,30.08,29.98,5,1,9,0.00
2013-7-27,83.8,68.5,57.2,59.0,55.5,52.0,86,66,37,30.02,29.84,5,1,9,0.00
2013-7-28,83.8,67.0,55.3,57.0,53.4,49.0,85,64,36,29.87,29.79,7,1,11,0.00
2013-7-29,79.4,63.1,51.1,54.0,50.1,47.0,86,65,39,30.00,29.84,15,3,20,0.00
2013-7-30,81.2,64.3,50.7,56.0,51.5,47.0,87,66,37,30.08,30.00,7,1,10,0.00
2013-7-31,80.9,65.3,54.7,55.0,51.0,48.0,80,62,33,30.07,30.01,7,1,10,0.00
2013-8-1,76.1,63.8,50.1,53.0,50.3,46.0,87,64,41,30.07,29.97,7,1,10,0.00
2013-8-2,81.1,64.4,49.2,55.0,51.0,46.0,88,65,36,29.98,29.89,5,1,10,0.00
2013-8-3,83.0,64.5,48.9,56.0,51.5,46.0,89,66,35,29.98,29.88,5,1,9,0.00
2013-8-4,79.4,63.9,55.1,55.0,52.1,49.0,81,67,42,30.01,29.92,5,1,9,0.00
2013-8-5,77.4,64.4,57.3,55.0,52.9,51.0,81,68,45,30.01,29.93,5,1,10,0.00
2013-8-6,76.3,64.1,58.0,55.0,52.9,51.0,81,68,46,30.04,29.96,6,1,10,0.00
2013-8-7,76.5,65.0,57.0,55.0,52.5,50.0,80,65,45,30.08,30.01,6,1,10,0.00
2013-8-8,77.2,64.1,55.9,56.0,53.3,50.0,82,69,45,30.03,29.92,6,1,11,0.00
2013-8-9,75.6,64.9,57.8,56.0,53.2,50.0,80,67,48,29.99,29.91,7,1,11,0.00
2013-8-10,77.7,65.8,59.3,57.0,55.1,53.0,81,70,48,30.04,29.98,7,1,10,0.00
2013-8-11,78.8,66.3,58.9,57.0,55.3,54.0,83,69,46,30.02,29.93,6,1,9,0.00
2013-8-12,82.6,67.4,55.4,57.0,53.8,51.0,88,65,39,29.98,29.92,6,1,9,0.00
2013-8-13,90.3,69.2,53.8,56.0,50.9,43.0,88,59,19,29.98,29.89,6,1,10,0.00
2013-8-14,82.0,66.8,52.5,58.0,53.6,49.0,88,66,36,29.98,29.91,7,1,10,0.00
2013-8-15,83.6,71.1,60.5,63.0,59.9,56.0,85,70,48,29.96,29.91,6,1,9,0.00
2013-8-16,85.7,70.9,60.1,63.0,59.1,55.0,90,69,40,29.98,29.93,5,0,9,0.00
2013-8-17,79.8,67.0,57.5,59.0,55.6,52.0,86,69,41,29.98,29.88,5,0,8,0.00
2013-8-18,94.3,73.0,54.5,58.0,54.6,51.0,90,58,25,29.88,29.75,2,0,6,0.00
2013-8-19,92.3,75.4,62.7,60.0,56.4,54.0,73,54,28,29.88,29.77,0,0,0,0.00
2013-8-20,86.5,71.0,59.8,59.0,52.9,40.0,84,57,22,29.88,29.78,7,1,19,0.00
2013-8-21,80.9,66.0,55.1,57.0,53.4,50.0,83,66,41,29.93,29.82,6,1,9,0.00
2013-8-22,76.8,65.5,56.9,56.0,53.9,52.0,85,68,47,29.96,29.87,8,1,11,0.00
2013-8-23,76.8,65.4,57.8,56.0,53.8,52.0,82,68,47,29.93,29.82,9,1,11,0.00
2013-8-24,81.2,66.4,52.9,58.0,54.3,50.0,88,68,42,29.90,29.84,8,1,12,0.00
2013-8-25,85.1,70.2,61.5,60.0,56.8,51.0,82,65,33,29.93,29.86,9,1,17,0.00
2013-8-26,77.7,67.2,58.3,58.0,54.2,49.0,81,65,39,29.99,29.90,6,1,11,0.00
2013-8-27,82.4,66.4,52.5,56.0,52.3,47.0,85,63,35,29.91,29.81,7,1,11,0.00
2013-8-28,82.0,68.4,56.9,61.0,57.4,53.0,87,70,45,29.94,29.86,6,1,9,0.00
2013-8-29,81.6,70.3,62.9,61.0,59.1,57.0,85,70,45,30.04,29.94,7,1,9,0.00
2013-8-30,89.9,71.9,58.3,62.0,56.2,51.0,91,63,26,30.04,29.91,6,0,11,0.00
2013-8-31,82.2,69.1,57.0,59.0,55.7,51.0,84,65,40,29.97,29.88,6,1,9,0.00
2013-9-1,83.2,70.1,60.2,60.0,55.9,51.0,85,64,35,29.94,29.86,5,1,11,0.00
2013-9-2,81.8,70.2,64.7,61.0,59.7,59.0,84,71,48,29.95,29.87,6,1,12,0.00
2013-9-3,78.6,68.6,58.1,60.0,54.0,47.0,88,63,34,30.00,29.92,6,1,11,0.00
2013-9-4,79.2,66.5,55.0,58.0,53.6,51.0,89,66,38,30.04,29.94,7,1,11,0.00
2013-9-5,78.6,65.8,53.6,56.0,51.4,49.0,88,63,37,30.02,29.95,10,1,11,0.00
2013-9-6,90.7,70.2,51.9,54.0,49.6,46.0,87,54,22,29.99,29.80,5,0,9,0.00
2013-9-7,96.8,75.6,57.3,55.0,48.7,44.0,71,44,17,29.86,29.77,5,0,9,0.00
2013-9-8,92.3,72.8,56.0,57.0,52.4,49.0,84,53,23,29.85,29.73,4,0,6,0.00
2013-9-9,93.6,72.5,57.2,59.0,54.3,50.0,84,57,25,29.80,29.69,4,0,8,0.00
2013-9-10,73.7,64.2,56.9,55.0,53.8,52.0,87,70,51,29.89,29.73,17,4,26,0.00
2013-9-11,78.1,66.5,58.6,57.0,54.3,52.0,78,66,45,29.98,29.88,8,2,14,0.00
2013-9-12,79.0,67.2,62.3,60.0,56.8,55.0,82,70,51,29.97,29.87,4,0,10,0.00
2013-9-13,79.8,66.1,58.4,58.0,55.8,54.0,84,71,47,29.91,29.77,6,1,8,0.00
2013-9-14,74.0,63.5,56.7,57.0,54.2,52.0,85,73,55,29.83,29.75,6,1,10,0.00
2013-9-15,79.0,65.9,57.5,58.0,54.1,51.0,85,68,43,29.87,29.80,8,1,10,0.00
2013-9-16,81.8,68.0,57.5,58.0,55.3,51.0,87,66,40,29.89,29.79,5,1,10,0.00
2013-9-17,76.0,63.2,52.9,53.0,49.3,43.0,86,64,32,29.89,29.84,9,1,13,0.00
2013-9-18,83.8,65.0,50.8,53.0,46.7,37.0,88,58,19,29.90,29.80,8,1,12,0.00
2013-9-19,88.8,67.0,49.1,51.0,43.3,35.0,82,49,15,29.84,29.73,6,0,9,0.00
2013-9-20,77.7,63.7,50.5,57.0,51.3,43.0,86,65,46,29.87,29.76,5,1,10,0.00
2013-9-21,67.3,62.1,52.9,57.0,53.4,48.0,84,73,55,29.91,29.80,10,2,18,0.00
2013-9-22,73.7,60.4,50.1,54.0,48.2,44.0,89,67,36,30.01,29.90,7,1,11,0.00
2013-9-23,82.0,64.7,50.4,58.0,50.7,47.0,88,64,31,30.02,29.91,6,1,10,0.00
2013-9-24,75.4,63.1,53.6,55.0,49.2,44.0,88,64,34,30.00,29.91,10,1,15,0.00
2013-9-25,69.8,59.0,49.9,45.0,42.2,37.0,79,56,33,29.94,29.83,7,2,12,0.00
2013-9-26,74.4,58.5,45.8,45.0,38.9,29.0,84,54,20,29.98,29.83,6,1,15,0.00
2013-9-27,77.7,60.3,45.1,43.0,36.4,24.0,77,48,14,30.09,29.98,6,0,8,0.00
2013-9-28,83.8,63.6,47.0,54.0,38.9,29.0,81,47,14,30.08,29.98,5,0,8,0.00
2013-9-29,77.0,63.7,51.6,56.0,52.7,48.0,89,70,45,30.10,30.03,5,0,9,0.00
2013-9-30,76.3,64.6,53.9,59.0,55.0,51.0,89,73,49,30.07,29.96,5,1,11,0.00
2013-10-1,74.4,59.9,47.0,54.0,45.3,41.0,83,61,35,30.02,29.91,4,0,9,0.00
2013-10-2,78.5,59.6,47.9,49.0,45.4,41.0,87,63,28,30.01,29.92,4,1,10,0.00
2013-10-3,72.7,58.9,46.7,43.0,36.3,29.0,82,48,20,30.06,29.94,9,1,13,0.00
2013-10-4,80.3,65.7,53.1,34.0,29.0,25.0,44,27,14,30.09,29.96,15,1,15,0.00
2013-10-5,85.9,64.1,46.5,36.0,31.7,27.0,61,35,12,30.18,30.08,3,0,8,0.00
2013-10-6,87.0,64.7,46.7,38.0,33.5,21.0,60,35,9,30.10,29.99,4,0,7,0.00
2013-10-7,83.4,64.2,49.2,43.0,34.2,24.0,65,37,12,29.99,29.86,4,0,8,0.00
2013-10-8,77.4,59.3,44.5,46.0,39.3,33.0,79,51,26,29.90,29.73,4,0,8,0.00
2013-10-9,68.1,55.1,45.2,46.0,42.4,39.0,86,65,34,29.75,29.63,5,0,12,0.00
2013-10-10,68.6,55.6,43.6,47.0,42.1,38.0,81,63,36,30.01,29.76,9,2,21,0.00
2013-10-11,69.8,53.9,42.3,51.0,45.2,39.0,90,74,45,30.08,29.97,5,0,8,0.00
2013-10-12,72.8,55.0,42.2,50.0,43.9,39.0,91,69,36,30.00,29.90,7,0,8,0.00
2013-10-13,72.8,56.5,43.5,49.0,41.2,37.0,89,62,27,30.07,29.94,6,1,10,0.00
2013-10-14,78.1,58.8,43.5,42.0,37.7,33.0,82,52,20,30.11,29.98,4,0,9,0.00
2013-10-15,79.6,59.9,44.5,41.0,34.7,30.0,72,45,17,30.04,29.94,6,0,9,0.00
2013-10-16,83.2,62.0,45.4,41.0,32.7,24.0,69,39,12,30.08,30.00,9,0,14,0.00
2013-10-17,81.2,61.5,46.1,39.0,33.9,28.0,67,41,15,30.07,29.95,5,0,7,0.00
2013-10-18,81.4,59.9,43.8,46.0,37.8,32.0,72,48,19,30.04,29.96,5,0,7,0.00
2013-10-19,82.6,60.1,44.2,48.0,42.3,35.0,81,57,19,30.07,29.97,3,0,8,0.00
2013-10-20,79.0,57.9,44.8,52.0,45.2,40.0,90,67,28,30.02,29.89,3,0,6,0.00
2013-10-21,74.7,56.3,46.0,51.0,46.5,42.0,91,73,39,30.00,29.90,3,0,6,0.00
2013-10-22,75.8,57.0,45.8,51.0,47.5,43.0,90,74,38,30.02,29.91,3,0,7,0.00
2013-10-23,71.6,55.9,48.8,52.0,48.6,45.0,92,78,49,29.98,29.89,3,0,5,0.00
2013-10-24,62.1,54.1,47.0,49.0,47.4,43.0,88,79,61,30.12,29.97,4,0,7,0.00
2013-10-25,70.4,56.2,46.8,49.0,46.6,43.0,88,72,41,30.17,30.07,3,0,7,0.00
2013-10-26,77.7,57.6,43.8,49.0,44.8,41.0,90,67,28,30.15,30.01,3,0,6,0.00
2013-10-27,64.0,53.5,46.2,50.0,45.2,42.0,90,75,49,30.03,29.72,7,1,14,0.00
2013-10-28,60.9,55.3,51.3,45.0,42.9,39.0,77,64,45,29.86,29.70,12,2,13,0.00
2013-10-29,61.5,53.9,45.1,46.0,43.6,40.0,85,69,52,30.05,29.86,7,0,8,0.00
2013-10-30,66.8,51.5,40.8,47.0,41.7,38.0,91,72,39,30.15,30.05,3,0,7,0.00
2013-10-31,73.0,54.1,41.5,46.0,40.7,38.0,89,66,29,30.17,30.06,3,0,7,0.00
2013-11-1,77.9,56.6,42.9,45.0,41.0,38.0,86,61,26,30.14,30.00,3,0,6,0.00
2013-11-2,71.6,55.2,42.9,49.0,42.7,36.0,86,65,38,30.03,29.92,4,0,8,0.00
2013-11-3,63.5,51.7,42.1,46.0,35.6,23.0,89,61,22,30.04,29.92,6,0,11,0.00
2013-11-4,66.9,51.2,38.9,42.0,32.0,25.0,87,53,21,30.05,29.91,8,1,11,0.00
2013-11-5,72.7,55.2,41.8,37.0,31.4,27.0,67,45,20,30.21,30.06,5,0,11,0.00
2013-11-6,73.3,55.8,42.1,38.0,35.4,31.0,75,50,21,30.25,30.15,3,0,6,0.00
2013-11-7,76.0,56.2,44.2,41.0,36.5,29.0,76,52,19,30.16,30.06,3,0,6,0.00
2013-11-8,72.8,54.7,43.9,50.0,43.8,39.0,88,70,38,30.09,29.96,3,0,6,0.00
2013-11-9,74.0,55.0,41.9,46.0,39.3,30.0,90,62,21,30.03,29.95,7,1,20,0.00
2013-11-10,66.6,51.1,41.3,48.0,43.5,37.0,88,76,50,30.12,30.02,5,0,6,0.00
2013-11-11,67.4,55.1,45.5,49.0,46.0,42.0,88,73,48,30.15,30.07,2,0,4,0.00
2013-11-12,72.5,58.2,48.0,48.0,45.3,42.0,81,65,33,30.25,30.14,5,0,6,0.00
2013-11-13,76.5,57.0,44.9,51.0,44.1,39.0,90,67,26,30.25,30.10,3,0,7,0.00
2013-11-14,67.4,53.0,45.5,54.0,46.2,-99.9,92,82,54,30.12,29.90,4,0,6,0.00
2013-11-15,66.3,50.5,40.6,47.0,39.3,34.0,92,70,31,29.89,29.73,5,0,9,0.00
2013-11-16,63.9,49.3,38.8,45.0,40.0,35.0,88,72,42,29.94,29.78,5,0,7,0.00
2013-11-17,64.7,50.5,41.2,47.0,43.1,39.0,91,77,50,30.09,29.93,5,0,9,0.00
2013-11-18,60.4,49.8,41.2,46.0,41.3,-99.9,91,77,55,30.14,30.07,3,0,7,0.00
2013-11-19,63.5,55.8,45.2,54.0,31.1,-99.9,89,67,57,30.11,29.95,7,1,10,0.00
2013-11-20,61.8,56.2,52.8,56.0,11.5,-99.9,92,64,74,29.95,29.84,7,1,10,0.00
2013-11-21,60.7,53.2,46.1,50.0,38.8,26.0,92,63,27,29.99,29.89,7,0,12,0.00
2013-11-22,67.3,50.2,41.1,33.0,27.9,14.0,72,47,17,30.04,29.90,5,0,9,0.00
2013-11-23,67.3,51.3,38.6,47.0,36.0,29.0,81,60,28,30.11,29.96,7,0,11,0.00
2013-11-24,66.0,49.7,38.0,42.0,37.6,34.0,87,67,33,30.25,30.10,3,0,6,0.00
2013-11-25,66.3,49.5,38.6,43.0,39.3,35.0,89,71,38,30.32,30.24,4,0,5,0.00
2013-11-26,63.4,50.2,40.8,45.0,41.3,37.0,88,73,47,30.25,30.02,3,0,4,0.00
2013-11-27,67.8,51.9,41.1,46.0,42.5,38.0,90,72,41,30.02,29.82,3,0,7,0.00
2013-11-28,68.8,52.5,43.9,45.0,41.9,39.0,87,70,38,30.09,29.86,4,0,6,0.00
2013-11-29,73.2,52.7,41.8,44.0,40.0,36.0,88,67,27,30.23,30.08,3,0,5,0.00
2013-11-30,69.3,50.8,39.3,45.0,40.0,35.0,85,69,37,30.26,30.18,4,0,5,0.00
2013-12-1,71.8,52.5,40.9,46.0,41.0,38.0,90,69,31,30.33,30.21,4,0,8,0.00
2013-12-2,64.7,51.7,40.6,50.0,44.5,37.0,90,78,53,30.23,29.99,3,0,7,0.00
2013-12-3,55.0,49.0,36.9,49.0,37.8,29.0,88,67,41,29.98,29.84,5,0,11,0.00
2013-12-4,52.2,39.7,31.0,29.0,22.9,15.0,77,55,25,30.08,29.93,4,0,8,0.00
2013-12-5,52.2,36.7,26.3,23.0,18.4,12.0,78,52,22,30.18,30.08,3,0,7,0.00
2013-12-6,51.9,42.0,29.0,46.0,31.2,20.0,86,68,40,30.19,29.92,9,1,22,0.00
2013-12-7,49.5,42.4,32.7,46.0,30.1,20.0,88,65,32,30.23,29.91,11,2,18,0.00
2013-12-8,46.1,35.4,29.0,31.0,23.1,18.0,87,64,34,30.32,30.21,5,0,8,0.00
2013-12-9,51.4,35.9,26.1,24.0,18.2,10.0,73,53,25,30.41,30.31,5,0,9,0.00
2013-12-10,53.8,36.8,26.0,29.0,24.7,21.0,82,64,34,30.40,30.21,6,0,6,0.00
2013-12-11,56.9,40.2,29.8,31.0,27.2,25.0,83,63,31,30.23,30.17,2,0,6,0.00
2013-12-12,61.5,41.7,29.4,34.0,28.8,25.0,85,64,27,30.26,30.16,2,0,5,0.00
2013-12-13,60.7,42.4,32.1,41.0,32.4,28.0,87,71,31,30.33,30.23,5,0,7,0.00
2013-12-14,62.4,44.2,33.2,39.0,33.3,30.0,88,69,34,30.38,30.30,5,0,6,0.00
2013-12-15,63.9,44.9,32.9,38.0,33.6,30.0,87,68,34,30.36,30.23,3,0,5,0.00
2013-12-16,67.8,48.0,36.3,39.0,33.3,31.0,82,61,28,30.24,30.11,1,0,4,0.00
2013-12-17,66.8,49.8,37.8,43.0,36.2,31.0,78,62,33,30.17,30.03,2,0,4,0.00
2013-12-18,62.6,50.8,42.5,43.0,39.7,37.0,87,68,40,30.03,29.79,3,0,5,0.00
2013-12-19,58.6,46.9,37.6,41.0,34.3,27.0,88,65,34,29.93,29.73,8,0,12,0.00
2013-12-20,60.9,44.1,32.5,26.0,17.4,3.0,68,41,11,30.01,29.93,5,0,8,0.00
2013-12-21,63.1,46.9,36.0,45.0,36.3,23.0,88,68,48,30.08,29.97,6,0,8,0.00
2013-12-22,67.8,49.1,37.9,45.0,36.5,31.0,91,67,27,30.28,30.08,5,0,8,0.00
2013-12-23,65.2,48.4,37.8,41.0,37.4,34.0,87,69,37,30.37,30.27,4,0,6,0.00
2013-12-24,70.9,50.3,38.0,41.0,36.5,33.0,87,64,28,30.34,30.20,6,0,8,0.00
2013-12-25,67.8,48.3,36.8,41.0,35.2,32.0,83,64,31,30.28,30.18,3,0,5,0.00
2013-12-26,69.4,48.3,36.3,42.0,36.1,32.0,86,67,32,30.25,30.15,3,0,5,0.00
2013-12-27,62.1,47.2,35.8,42.0,35.8,31.0,83,67,40,30.22,30.11,1,0,4,0.00
2013-12-28,67.1,47.1,35.0,40.0,30.6,25.0,88,59,21,30.14,30.02,5,0,8,0.00
2013-12-29,68.8,50.4,40.5,30.0,24.8,17.0,62,41,16,30.17,30.08,6,0,7,0.00
2013-12-30,69.3,47.6,34.3,31.0,27.6,21.0,75,51,16,30.25,30.16,7,0,11,0.00
2013-12-31,62.6,45.1,34.1,39.0,33.1,26.0,83,65,39,30.26,30.13,5,0,7,0.00
2014-1-1,65.3,46.9,34.0,35.0,31.6,28.0,81,60,26,30.22,30.13,2,0,5,0.00
2014-1-2,67.1,48.2,36.8,39.0,33.2,30.0,77,59,27,30.18,30.07,2,0,5,0.00